Location: 22
(39.7117°N, 89.5929°W)
Time: 08:34:41
(UTC-06:00)

Transit 4A - Visible Passes

Search period start: 27 January 2023 00:00
Search period end: 06 February 2023 00:00
Orbit: 871 x 973 km, 66.8° (Epoch: 26 January)

Date Brightness Start Highest point End Pass type
(mag) Time Alt. Az. Time Alt. Az. Time Alt. Az.
27 Jan 8.3 04:19:11 57° ESE 04:19:11 57° ESE 04:24:08 10° SE visible
27 Jan 9.2 06:02:45 17° W 06:03:46 18° WSW 06:07:38 10° SW visible
27 Jan 9.3 17:34:53 10° SE 17:38:14 16° ESE 17:41:33 10° ENE visible
27 Jan 7.9 19:18:01 10° SW 19:23:51 73° WNW 19:26:15 37° NNE visible
27 Jan 10.4 21:08:17 10° WNW 21:09:49 13° NW 21:09:49 13° NW visible
28 Jan 8.5 04:29:14 45° SSE 04:29:14 45° SSE 04:33:23 10° SSE visible
28 Jan 9.7 06:12:49 11° WSW 06:12:49 11° WSW 06:13:50 10° WSW visible
28 Jan 8.9 17:42:33 10° SSE 17:47:10 25° ESE 17:51:46 10° NE visible
28 Jan 8.5 19:27:30 10° SW 19:33:08 49° NW 19:36:08 26° N visible
29 Jan 9.1 04:39:22 29° S 04:39:22 29° S 04:42:21 10° S visible
29 Jan 8.3 17:50:52 10° S 17:56:11 38° ESE 18:01:30 10° NE visible
29 Jan 9.2 19:37:16 10° WSW 19:42:30 34° NW 19:45:57 19° N visible
30 Jan 9.7 04:49:32 17° SSW 04:49:32 17° SSW 04:50:59 10° S visible
30 Jan 7.9 17:59:33 10° SSW 18:05:16 58° ESE 18:10:57 10° NE visible
30 Jan 9.7 19:47:19 10° W 19:51:57 24° NW 19:55:38 14° N visible
31 Jan 7.8 18:08:34 10° SSW 18:14:25 87° ESE 18:20:15 10° NNE visible
31 Jan 10.1 19:57:45 10° W 20:01:31 17° NW 20:05:14 10° N visible
01 Feb 8.2 18:17:51 10° SW 18:23:38 64° WNW 18:29:26 10° NNE visible
01 Feb 10.3 20:08:45 10° WNW 20:11:10 13° NW 20:13:36 10° NNW visible
02 Feb 8.9 18:27:26 10° SW 18:32:57 43° NW 18:38:29 10° NNE visible
03 Feb 9.5 18:37:16 10° WSW 18:42:20 30° NW 18:47:26 10° N visible
04 Feb 9.9 18:47:27 10° W 18:51:50 22° NW 18:56:14 10° N visible
05 Feb 10.2 18:58:02 10° WNW 19:01:25 16° NW 19:04:50 10° N visible
